Wind_Speed
7 7 6 7 7 6 6 6 8 8 7 9 10 10 9 9 9 9 10 10 10 10 10 10 9 9 8 8 9 9 9 9 9 10 10 10 11 11 11 11 11 11 11
7 7 7 6 7 7 8 8 9 9 8 8 9 10 10 10 10 10 10 10 10 10 10 11 10 9 9 9 10 10 10 10 11 11 11 11 12 13 12 12 12 12 12
8 8 8 8 8 8 8 9 9 10 10 10 10 10 10 10 10 10 10 10 10 10 11 11 11 10 10 10 11 11 12 12 12 12 12 12 13 13 13 13 13 13 13
8 9 9 9 9 9 10 10 10 10 10 11 10 10 10 10 10 10 10 11 10 11 11 11 11 11 11 12 12 13 13 13 13 13 13 13 14 14 14 14 14 13 13
10 10 10 10 10 10 11 11 11 10 10 11 11 12 11 11 11 11 11 11 11 11 11 11 11 12 12 12 13 13 13 13 14 14 14 14 14 14 14 14 14 14 14
12 12 12 12 11 12 12 12 13 12 12 12 12 13 12 12 12 12 11 11 12 12 12 13 13 13 13 13 14 14 14 14 14 14 14 15 15 15 15 15 15 15 14
13 13 13 13 12 13 13 14 15 14 14 13 13 13 14 14 13 12 12 12 12 13 13 14 13 13 13 14 14 15 14 14 14 14 15 15 15 15 15 15 16 16 15
14 13 13 14 13 13 13 13 14 15 15 15 14 15 14 14 14 13 13 14 14 14 15 15 14 13 14 14 15 16 16 15 15 16 16 16 16 16 15 15 16 16 15
14 14 14 14 15 14 14 14 15 15 15 16 16 16 15 14 15 14 14 15 15 15 15 14 14 13 14 14 14 15 15 15 15 15 15 15 15 16 15 15 15 15 15
15 15 15 15 15 15 15 15 15 16 16 16 16 16 17 17 16 15 15 16 15 15 15 15 14 14 14 14 14 15 15 16 16 15 16 15 15 15 15 15 16 16 15
17 16 16 16 16 16 16 17 17 16 16 17 17 16 17 17 17 16 15 16 16 17 17 16 16 16 15 15 15 15 15 15 15 15 15 15 15 15 16 16 16 16 16
18 18 18 17 17 17 18 17 17 17 18 18 17 17 17 16 17 16 16 16 17 17 17 16 16 15 15 15 15 15 15 16 16 16 16 15 15 15 16 16 17 17 17
19 20 20 19 19 19 19 19 18 18 18 18 18 17 17 17 17 17 17 17 17 16 16 17 17 16 16 16 15 16 15 16 16 16 16 16 16 16 17 17 18 18 18
22 21 22 21 21 21 21 20 20 19 18 19 19 18 18 18 18 18 18 18 17 17 17 18 18 18 17 17 16 16 16 16 16 17 17 17 17 18 18 18 18 18 18
24 23 23 23 22 22 22 21 21 20 20 20 20 20 19 19 18 18 18 18 18 18 18 18 18 18 18 17 17 17 17 17 17 18 18 19 19 20 20 20 19 18 19
25 24 24 24 23 23 22 21 21 20 20 20 21 21 20 20 20 19 18 18 18 18 18 18 18 18 18 18 18 18 18 18 18 19 20 20 20 21 20 20 19 19 19
26 25 25 25 24 23 23 22 22 21 21 21 22 21 21 21 20 19 19 18 18 19 19 19 18 18 18 18 18 19 19 19 18 19 19 20 20 20 20 20 20 20 20
25 25 26 26 26 25 25 23 23 23 23 22 22 22 21 21 21 21 20 20 20 20 20 20 19 19 19 19 18 18 19 19 19 19 19 19 19 19 20 20 20 20 20
26 26 26 26 26 26 26 26 25 24 24 23 23 23 22 22 23 22 22 22 22 21 21 20 20 20 19 20 19 18 19 19 19 19 19 19 19 19 20 20 20 20 20
27 27 27 27 27 27 26 26 26 26 25 24 23 23 23 24 24 24 24 23 22 21 20 20 20 20 21 20 20 20 19 19 19 19 19 19 19 19 19 20 20 20 20
26 27 27 27 27 27 26 26 26 26 25 24 23 23 24 24 24 24 24 24 23 22 21 21 20 21 21 21 21 20 20 20 20 20 20 20 20 20 21 21 21 21 21
26 27 27 27 26 26 25 26 26 26 26 25 24 24 24 24 24 24 24 24 24 23 22 22 21 21 21 22 22 21 21 20 20 20 21 21 21 21 22 22 22 22 22
26 26 25 25 24 24 24 24 24 25 25 26 26 25 25 25 25 26 25 24 25 25 23 23 23 22 22 22 22 21 21 21 21 21 21 21 21 22 22 22 22 22 23
26 26 27 27 27 27 27 26 25 25 24 25 25 24 24 25 26 26 26 25 25 25 25 24 23 23 22 22 22 22 21 21 22 22 22 22 22 22 22 23 23 23 23
27 28 28 28 27 27 27 27 26 26 25 25 25 25 25 25 25 25 25 25 25 25 25 24 24 23 23 23 23 22 22 22 22 22 22 22 22 22 22 22 23 23 23
28 28 28 28 28 27 27 26 26 26 26 26 26 25 25 26 26 25 25 25 25 25 25 25 24 23 22 22 22 22 22 22 22 22 22 22 22 22 23 23 23 23 23
Wind_Direction
311 304 305 295 285 282 284 285 276 269 268 268 261 257 260 266 262 258 257 257 260 262 261 259 260 260 257 256 255 259 263 267 270 270 274 269 265 268 271 270 268 265 267
312 303 299 293 280 276 276 280 281 275 274 268 262 260 262 264 259 260 262 264 263 261 260 262 262 262 262 265 262 260 265 267 268 268 271 270 269 269 270 272 271 270 267
306 304 299 292 285 281 283 282 278 276 277 271 270 271 268 265 264 266 264 265 267 265 264 265 264 264 268 269 267 266 266 268 267 268 269 269 270 269 269 271 271 269 271
303 301 296 296 290 286 282 281 280 275 274 272 273 271 267 264 263 263 265 265 266 269 267 264 264 266 269 268 266 267 268 269 269 269 269 268 269 267 268 270 269 267 268
296 297 295 294 292 287 282 280 276 273 271 270 269 271 271 270 267 267 269 270 271 271 267 265 270 272 271 268 266 266 268 270 270 270 268 268 269 266 265 269 268 268 267
295 294 292 290 287 285 282 279 275 273 270 269 269 269 267 268 265 265 269 272 270 267 270 272 273 274 271 270 269 269 269 270 270 270 269 268 270 268 267 269 268 268 267
295 293 289 289 288 287 284 275 271 269 268 265 268 270 267 265 263 266 270 272 271 273 274 273 272 272 269 270 270 271 269 269 270 269 271 271 270 269 269 268 266 265 266
294 293 291 289 289 286 283 280 272 269 269 268 267 267 267 266 268 268 269 274 274 273 275 276 273 274 272 273 272 271 269 270 271 271 272 272 270 267 266 266 266 265 265
292 293 291 289 289 285 280 278 275 273 271 267 266 267 266 266 265 268 270 272 272 273 274 275 277 276 276 275 272 271 267 268 271 271 272 272 270 268 266 264 264 264 264
291 291 292 290 288 286 283 279 275 270 270 270 268 269 268 267 265 266 269 270 273 273 273 276 274 275 275 274 272 271 269 269 270 271 271 272 269 267 264 263 263 263 263
288 289 290 288 287 287 284 281 275 272 270 271 271 271 270 268 268 269 270 270 272 274 275 275 273 275 273 274 273 273 269 268 269 271 271 270 267 264 263 263 264 264 264
285 286 285 283 285 286 285 281 275 272 270 271 271 272 272 270 269 269 271 272 271 275 276 274 273 272 273 275 273 272 269 269 271 272 271 268 265 263 263 264 264 266 266
286 286 284 283 282 284 284 281 276 273 273 273 272 271 272 272 271 270 272 272 270 272 273 271 271 272 274 273 272 272 271 271 270 271 271 269 266 265 264 265 265 266 266
287 287 286 284 281 281 282 282 278 273 272 271 273 271 272 273 274 273 273 271 270 271 270 271 271 272 274 274 274 273 271 270 270 270 270 269 268 267 266 267 267 266 266
285 285 284 283 281 279 280 280 275 271 269 269 270 270 270 272 274 273 272 272 271 271 269 271 273 273 273 274 274 272 271 272 272 270 270 269 269 269 268 269 266 266 266
282 281 281 281 279 278 278 277 273 271 271 270 269 268 269 271 271 270 271 272 271 270 271 273 274 275 273 273 273 272 272 273 273 272 271 271 270 269 269 267 265 265 266
279 277 278 277 276 277 278 276 275 273 271 268 268 267 266 268 267 267 269 270 271 271 273 273 272 274 274 275 273 272 273 272 271 271 269 269 268 267 266 267 267 266 266
276 276 276 275 275 276 275 276 277 273 270 268 266 264 265 265 265 265 268 270 271 272 271 271 271 272 274 276 275 272 271 270 270 269 268 267 267 266 267 268 267 266 266
277 276 276 276 274 273 273 273 273 272 269 268 264 261 262 264 265 266 268 269 271 272 270 269 268 270 272 275 274 274 272 269 268 268 267 267 267 266 266 267 267 267 267
278 277 277 276 274 272 272 272 270 268 268 266 264 262 262 263 264 266 267 267 268 269 270 269 268 269 271 274 273 273 271 268 266 267 267 267 266 266 266 266 267 267 267
278 277 276 276 274 271 270 270 268 267 265 264 263 262 263 263 265 266 265 265 266 267 269 271 270 268 270 273 273 272 269 266 267 267 268 268 266 266 267 267 267 266 267
278 277 276 274 273 271 270 268 266 264 263 263 263 262 262 262 264 267 268 267 266 266 267 270 269 268 269 270 271 269 266 265 265 266 267 267 267 267 266 265 265 265 265
280 278 278 275 274 273 272 271 267 264 262 262 263 264 263 263 265 267 268 268 265 266 267 269 270 270 269 269 269 267 264 262 263 265 267 267 267 267 267 266 267 267 267
279 278 276 276 274 274 274 276 273 267 266 264 263 264 267 266 266 266 266 267 267 266 266 267 270 272 270 269 267 265 262 261 263 265 266 266 266 266 265 266 267 267 267
279 278 277 275 275 276 273 272 272 270 268 267 265 265 266 266 266 266 265 266 267 266 266 265 266 269 268 269 269 266 264 264 265 267 268 268 268 267 267 267 267 267 268
280 278 277 276 276 276 274 273 271 268 266 266 265 265 267 268 268 265 265 265 266 265 264 266 267 269 268 267 267 267 265 264 264 265 266 268 269 268 267 268 269 269 269
Height
5878 5877 5876 5875 5874 5874 5873 5873 5872 5872 5871 5871 5871 5871 5871 5871 5871 5871 5870 5870 5870 5869 5869 5869 5869 5869 5869 5868 5868 5868 5868 5867 5867 5867 5866 5866 5866 5866 5865 5865 5865 5864 5864
5876 5875 5874 5873 5873 5872 5872 5871 5871 5870 5870 5870 5869 5869 5869 5869 5869 5868 5868 5868 5868 5867 5867 5867 5866 5866 5866 5866 5866 5866 5865 5865 5864 5864 5864 5863 5863 5863 5863 5862 5862 5862 5862
5875 5874 5873 5872 5871 5870 5870 5869 5869 5868 5867 5867 5867 5866 5866 5866 5866 5866 5865 5865 5865 5865 5864 5864 5864 5864 5863 5863 5863 5863 5862 5862 5861 5861 5861 5860 5860 5860 5860 5860 5859 5859 5859
5873 5872 5871 5870 5869 5868 5867 5867 5866 5865 5865 5865 5864 5864 5864 5864 5863 5863 5863 5863 5863 5862 5862 5861 5861 5861 5860 5860 5860 5859 5859 5859 5858 5858 5857 5857 5857 5857 5857 5857 5856 5856 5856
5870 5869 5868 5867 5866 5865 5865 5864 5863 5863 5862 5862 5862 5861 5861 5861 5861 5860 5860 5860 5860 5859 5859 5858 5858 5858 5857 5857 5856 5856 5856 5855 5855 5854 5854 5854 5853 5853 5853 5853 5853 5853 5853
5867 5867 5865 5864 5863 5862 5861 5860 5860 5860 5859 5859 5858 5858 5858 5858 5858 5858 5858 5857 5857 5856 5856 5855 5855 5855 5854 5854 5853 5853 5852 5852 5851 5851 5850 5850 5850 5850 5850 5850 5850 5850 5850
5864 5863 5862 5861 5860 5859 5858 5858 5857 5856 5856 5855 5855 5855 5854 5854 5855 5855 5854 5854 5853 5853 5852 5852 5851 5851 5850 5849 5849 5849 5848 5848 5847 5847 5846 5846 5846 5846 5846 5846 5846 5846 5846
5861 5860 5859 5858 5857 5856 5855 5854 5854 5853 5852 5852 5852 5851 5851 5851 5851 5851 5851 5850 5850 5849 5849 5848 5847 5846 5846 5845 5845 5844 5844 5844 5843 5843 5842 5842 5842 5842 5842 5842 5842 5842 5842
5857 5856 5855 5854 5853 5852 5851 5850 5850 5849 5849 5848 5848 5848 5847 5847 5847 5848 5847 5847 5846 5846 5845 5844 5843 5842 5842 5841 5840 5839 5839 5839 5839 5839 5838 5838 5838 5838 5838 5838 5838 5838 5838
5853 5852 5851 5850 5849 5848 5847 5846 5846 5845 5845 5844 5844 5844 5844 5844 5843 5843 5843 5843 5842 5841 5841 5840 5839 5838 5837 5836 5835 5835 5834 5834 5834 5834 5834 5833 5833 5833 5834 5834 5834 5834 5835
5849 5848 5847 5846 5844 5844 5843 5842 5841 5841 5840 5840 5839 5839 5839 5839 5839 5838 5838 5838 5837 5837 5836 5836 5835 5834 5833 5832 5831 5831 5830 5830 5830 5829 5829 5829 5829 5829 5829 5830 5830 5830 5830
5844 5843 5842 5840 5839 5839 5838 5837 5836 5836 5835 5835 5834 5834 5834 5834 5834 5834 5834 5833 5833 5832 5832 5831 5830 5830 5829 5828 5827 5827 5826 5826 5825 5825 5825 5825 5825 5825 5825 5825 5826 5826 5826
5839 5838 5837 5835 5834 5833 5832 5831 5831 5830 5830 5830 5829 5829 5829 5829 5829 5829 5829 5828 5828 5828 5827 5826 5826 5825 5824 5824 5823 5822 5821 5821 5821 5821 5821 5821 5821 5821 5821 5821 5821 5821 5821
5833 5832 5831 5830 5829 5828 5827 5826 5825 5825 5824 5824 5824 5824 5824 5823 5823 5823 5823 5823 5823 5823 5822 5822 5821 5820 5819 5819 5818 5817 5817 5816 5816 5816 5816 5816 5816 5816 5816 5816 5816 5816 5816
5826 5825 5825 5823 5822 5821 5821 5820 5819 5819 5819 5818 5818 5818 5818 5818 5817 5817 5817 5817 5818 5817 5817 5816 5816 5815 5814 5814 5813 5813 5812 5812 5812 5811 5811 5811 5811 5811 5811 5810 5811 5811 5811
5819 5819 5818 5817 5816 5815 5814 5813 5813 5813 5812 5812 5812 5812 5812 5812 5812 5812 5812 5812 5811 5811 5811 5811 5810 5809 5809 5808 5808 5807 5807 5807 5806 5806 5806 5805 5805 5805 5805 5805 5805 5805 5805
5812 5811 5811 5810 5809 5808 5808 5807 5807 5806 5806 5806 5806 5806 5806 5806 5806 5806 5806 5806 5806 5805 5805 5805 5804 5804 5803 5803 5802 5801 5801 5801 5801 5800 5800 5800 5800 5799 5799 5799 5800 5800 5800
5805 5804 5803 5802 5801 5801 5801 5800 5800 5800 5800 5800 5800 5800 5799 5799 5800 5800 5800 5800 5800 5799 5799 5799 5799 5798 5798 5797 5796 5796 5795 5795 5795 5795 5794 5794 5794 5794 5794 5794 5794 5794 5794
5797 5796 5795 5794 5794 5793 5793 5793 5793 5792 5792 5792 5793 5793 5793 5793 5794 5794 5794 5793 5793 5793 5792 5792 5793 5792 5792 5792 5791 5790 5790 5790 5789 5789 5789 5789 5789 5788 5788 5788 5788 5788 5788
5789 5788 5787 5786 5786 5785 5785 5785 5784 5784 5785 5785 5785 5785 5786 5786 5787 5787 5787 5787 5787 5787 5786 5786 5786 5786 5786 5785 5785 5784 5784 5784 5783 5783 5783 5783 5783 5782 5782 5782 5782 5782 5782
5780 5779 5778 5778 5777 5777 5777 5777 5776 5776 5777 5777 5777 5778 5779 5779 5779 5779 5780 5780 5780 5780 5780 5780 5780 5780 5779 5779 5779 5778 5778 5778 5777 5778 5778 5777 5777 5777 5776 5776 5776 5776 5776
5772 5771 5769 5769 5769 5769 5769 5768 5768 5768 5769 5769 5770 5771 5771 5772 5772 5772 5772 5773 5773 5773 5774 5773 5773 5773 5773 5773 5772 5772 5772 5772 5772 5772 5771 5771 5771 5771 5770 5770 5770 5770 5770
5764 5763 5761 5760 5760 5760 5760 5760 5760 5761 5761 5762 5763 5763 5764 5764 5765 5765 5765 5765 5766 5766 5767 5767 5766 5766 5766 5766 5766 5766 5765 5765 5765 5765 5765 5765 5765 5764 5764 5764 5763 5763 5763
5756 5755 5754 5753 5752 5752 5752 5752 5753 5753 5753 5754 5755 5755 5756 5756 5757 5757 5757 5758 5758 5758 5759 5759 5759 5759 5759 5759 5759 5759 5759 5759 5759 5759 5759 5759 5758 5758 5757 5757 5756 5756 5756
5748 5747 5746 5745 5745 5744 5744 5744 5744 5745 5746 5746 5747 5748 5748 5748 5749 5749 5749 5750 5750 5750 5751 5751 5752 5752 5752 5752 5752 5752 5752 5752 5752 5752 5752 5752 5751 5751 5750 5750 5749 5749 5749
5739 5738 5737 5737 5736 5736 5736 5736 5736 5737 5737 5738 5739 5739 5740 5740 5740 5741 5741 5741 5742 5742 5743 5743 5744 5744 5744 5745 5745 5745 5745 5745 5745 5745 5745 5745 5744 5744 5744 5743 5742 5742 5742